Time,TemperatureF,DewpointF,PressureIn,WindDirection,WindDirectionDegrees,WindSpeedMPH,WindSpeedGustMPH,Humidity,HourlyPrecipIn,Conditions,Clouds,dailyrainin,SoftwareType,DateUTC
2013-01-04 00:05:00,27.7,8.1,30.05,WSW,253,9.0,21.0,43,0.00,,,-99.99,Weather View 32 v60,2013-01-04 05:05:00,
2013-01-04 00:10:00,27.7,8.1,30.02,WSW,250,11.0,21.0,43,0.00,,,-99.99,Weather View 32 v60,2013-01-04 05:10:00,
2013-01-04 00:15:00,27.7,8.1,30.02,WSW,254,8.0,21.0,43,0.00,,,-99.99,Weather View 32 v60,2013-01-04 05:15:00,
2013-01-04 00:20:00,27.7,8.1,30.02,West,278,8.0,21.0,43,0.00,,,-99.99,Weather View 32 v60,2013-01-04 05:20:00,
2013-01-04 00:25:00,27.7,8.1,30.02,WSW,250,8.0,21.0,43,0.00,,,-99.99,Weather View 32 v60,2013-01-04 05:25:00,
2013-01-04 00:30:00,27.7,8.1,30.02,West,275,13.0,21.0,43,0.00,,,-99.99,Weather View 32 v60,2013-01-04 05:30:00,
2013-01-04 00:40:00,27.7,8.1,30.02,West,280,8.0,21.0,43,0.00,,,-99.99,Weather View 32 v60,2013-01-04 05:40:00,
2013-01-04 00:45:00,27.7,8.1,30.02,SW,224,6.0,21.0,43,0.00,,,-99.99,Weather View 32 v60,2013-01-04 05:45:00,
2013-01-04 00:50:00,27.9,8.2,30.02,WSW,254,9.0,21.0,43,0.00,,,-99.99,Weather View 32 v60,2013-01-04 05:50:00,
2013-01-04 00:55:00,27.9,8.2,30.02,West,262,11.0,21.0,43,0.00,,,-99.99,Weather View 32 v60,2013-01-04 05:55:00,
2013-01-04 00:57:00,27.9,8.2,30.02,West,262,11.0,21.0,43,0.00,,,-99.99,Weather View 32 v60,2013-01-04 05:57:00,
2013-01-04 01:05:00,27.9,8.2,30.02,West,269,9.0,20.0,43,0.00,,,-99.99,Weather View 32 v60,2013-01-04 06:05:00,
2013-01-04 01:10:00,27.9,8.2,30.02,WNW,285,10.0,20.0,43,0.00,,,-99.99,Weather View 32 v60,2013-01-04 06:10:00,
2013-01-04 01:15:00,27.7,8.1,30.02,WSW,241,8.0,20.0,43,0.00,,,-99.99,Weather View 32 v60,2013-01-04 06:15:00,
2013-01-04 01:20:00,27.7,8.1,30.02,WSW,250,13.0,20.0,43,0.00,,,-99.99,Weather View 32 v60,2013-01-04 06:20:00,
2013-01-04 01:25:00,27.7,8.1,30.02,WNW,286,6.0,20.0,43,0.00,,,-99.99,Weather View 32 v60,2013-01-04 06:25:00,
2013-01-04 01:30:00,27.7,8.1,30.02,West,274,10.0,20.0,43,0.00,,,-99.99,Weather View 32 v60,2013-01-04 06:30:00,
2013-01-04 01:35:00,27.7,8.1,30.02,West,264,9.0,20.0,43,0.00,,,-99.99,Weather View 32 v60,2013-01-04 06:35:00,
2013-01-04 01:40:00,27.7,8.1,30.02,West,277,17.0,20.0,43,0.00,,,-99.99,Weather View 32 v60,2013-01-04 06:40:00,
2013-01-04 01:45:00,27.9,8.2,30.02,WSW,243,6.0,20.0,43,0.00,,,-99.99,Weather View 32 v60,2013-01-04 06:45:00,
2013-01-04 01:50:00,27.9,8.2,29.99,WSW,257,8.0,20.0,43,0.00,,,-99.99,Weather View 32 v60,2013-01-04 06:50:00,
2013-01-04 01:55:00,27.9,8.2,29.99,WSW,254,8.0,17.0,43,0.00,,,-99.99,Weather View 32 v60,2013-01-04 06:55:00,
2013-01-04 02:00:00,27.9,8.2,29.99,WSW,255,13.0,17.0,43,0.00,,,-99.99,Weather View 32 v60,2013-01-04 07:00:00,
2013-01-04 02:05:00,27.9,8.2,29.99,West,279,14.0,17.0,43,0.00,,,-99.99,Weather View 32 v60,2013-01-04 07:05:00,
2013-01-04 02:10:00,27.9,8.2,29.99,West,268,13.0,17.0,43,0.00,,,-99.99,Weather View 32 v60,2013-01-04 07:10:00,
2013-01-04 02:15:00,27.9,8.2,29.99,SW,233,8.0,17.0,43,0.00,,,-99.99,Weather View 32 v60,2013-01-04 07:15:00,
2013-01-04 02:20:00,27.9,8.2,29.99,WSW,248,15.0,17.0,43,0.00,,,-99.99,Weather View 32 v60,2013-01-04 07:20:00,
2013-01-04 02:25:00,27.9,8.2,29.99,West,276,14.0,17.0,43,0.00,,,-99.99,Weather View 32 v60,2013-01-04 07:25:00,
2013-01-04 02:30:00,27.9,8.2,29.99,WSW,257,15.0,17.0,43,0.00,,,-99.99,Weather View 32 v60,2013-01-04 07:30:00,
2013-01-04 02:35:00,27.9,8.2,29.99,SW,221,8.0,17.0,43,0.00,,,-99.99,Weather View 32 v60,2013-01-04 07:35:00,
2013-01-04 02:40:00,27.9,8.2,29.99,WSW,239,5.0,17.0,43,0.00,,,-99.99,Weather View 32 v60,2013-01-04 07:40:00,
2013-01-04 02:45:00,27.9,8.2,29.99,WSW,238,15.0,17.0,43,0.00,,,-99.99,Weather View 32 v60,2013-01-04 07:45:00,
2013-01-04 02:50:00,27.9,8.2,29.99,WSW,240,11.0,17.0,43,0.00,,,-99.99,Weather View 32 v60,2013-01-04 07:50:00,
2013-01-04 02:55:00,27.9,8.2,29.99,WNW,293,11.0,17.0,43,0.00,,,-99.99,Weather View 32 v60,2013-01-04 07:55:00,
2013-01-04 03:00:00,27.9,8.2,29.99,WSW,254,11.0,17.0,43,0.00,,,-99.99,Weather View 32 v60,2013-01-04 08:00:00,
2013-01-04 03:10:00,27.7,8.1,29.99,South,186,8.0,18.0,43,0.00,,,-99.99,Weather View 32 v60,2013-01-04 08:10:00,
2013-01-04 03:15:00,27.7,8.1,29.99,WNW,292,16.0,18.0,43,0.00,,,-99.99,Weather View 32 v60,2013-01-04 08:15:00,
2013-01-04 03:20:00,27.7,8.1,29.99,WNW,288,13.0,18.0,43,0.00,,,-99.99,Weather View 32 v60,2013-01-04 08:20:00,
2013-01-04 03:25:00,27.7,8.1,29.99,SSW,195,6.0,18.0,43,0.00,,,-99.99,Weather View 32 v60,2013-01-04 08:25:00,
2013-01-04 03:30:00,27.7,8.1,29.99,SW,235,13.0,18.0,43,0.00,,,-99.99,Weather View 32 v60,2013-01-04 08:30:00,
2013-01-04 03:35:00,27.7,8.1,29.99,West,260,8.0,18.0,43,0.00,,,-99.99,Weather View 32 v60,2013-01-04 08:35:00,
2013-01-04 03:40:00,27.5,7.9,29.99,West,264,6.0,18.0,43,0.00,,,-99.99,Weather View 32 v60,2013-01-04 08:40:00,
2013-01-04 03:45:00,27.5,7.9,29.99,SW,228,6.0,18.0,43,0.00,,,-99.99,Weather View 32 v60,2013-01-04 08:45:00,
2013-01-04 03:50:00,27.5,7.9,29.99,WSW,252,8.0,18.0,43,0.00,,,-99.99,Weather View 32 v60,2013-01-04 08:50:00,
2013-01-04 03:55:00,27.3,7.8,29.99,WSW,258,10.0,18.0,43,0.00,,,-99.99,Weather View 32 v60,2013-01-04 08:55:00,
2013-01-04 04:00:00,27.3,7.8,29.99,WSW,258,8.0,18.0,43,0.00,,,-99.99,Weather View 32 v60,2013-01-04 09:00:00,
2013-01-04 04:05:00,27.3,7.8,29.99,WSW,246,8.0,18.0,43,0.00,,,-99.99,Weather View 32 v60,2013-01-04 09:05:00,
2013-01-04 04:15:00,27.1,7.6,29.99,WSW,255,6.0,17.0,43,0.00,,,-99.99,Weather View 32 v60,2013-01-04 09:15:00,
2013-01-04 04:20:00,27.1,7.6,29.96,WSW,253,9.0,17.0,43,0.00,,,-99.99,Weather View 32 v60,2013-01-04 09:20:00,
2013-01-04 04:25:00,27.1,7.6,29.96,WNW,282,10.0,17.0,43,0.00,,,-99.99,Weather View 32 v60,2013-01-04 09:25:00,
2013-01-04 04:35:00,27.0,7.4,29.96,WSW,251,6.0,17.0,43,0.00,,,-99.99,Weather View 32 v60,2013-01-04 09:35:00,
2013-01-04 04:40:00,27.0,7.4,29.96,West,264,6.0,17.0,43,0.00,,,-99.99,Weather View 32 v60,2013-01-04 09:40:00,
2013-01-04 04:45:00,27.0,7.4,29.96,WSW,243,6.0,17.0,43,0.00,,,-99.99,Weather View 32 v60,2013-01-04 09:45:00,
2013-01-04 04:50:00,26.8,7.3,29.96,SW,229,6.0,15.0,43,0.00,,,-99.99,Weather View 32 v60,2013-01-04 09:50:00,
2013-01-04 04:55:00,26.8,7.3,29.96,West,279,13.0,15.0,43,0.00,,,-99.99,Weather View 32 v60,2013-01-04 09:55:00,
2013-01-04 05:00:00,26.8,7.3,29.96,WSW,247,15.0,15.0,43,0.00,,,-99.99,Weather View 32 v60,2013-01-04 10:00:00,
2013-01-04 05:05:00,26.6,7.1,29.96,SW,234,8.0,15.0,43,0.00,,,-99.99,Weather View 32 v60,2013-01-04 10:05:00,
2013-01-04 05:10:00,26.6,7.1,29.96,West,268,11.0,15.0,43,0.00,,,-99.99,Weather View 32 v60,2013-01-04 10:10:00,
2013-01-04 05:15:00,26.6,7.1,29.96,WSW,253,5.0,15.0,43,0.00,,,-99.99,Weather View 32 v60,2013-01-04 10:15:00,
2013-01-04 05:20:00,26.4,6.9,29.96,WSW,258,12.0,15.0,43,0.00,,,-99.99,Weather View 32 v60,2013-01-04 10:20:00,
2013-01-04 05:30:00,26.2,7.3,29.96,WSW,252,11.0,15.0,44,0.00,,,-99.99,Weather View 32 v60,2013-01-04 10:30:00,
2013-01-04 05:35:00,26.2,7.3,29.96,West,274,8.0,15.0,44,0.00,,,-99.99,Weather View 32 v60,2013-01-04 10:35:00,
2013-01-04 05:45:00,26.1,7.1,29.96,WSW,244,9.0,15.0,44,0.00,,,-99.99,Weather View 32 v60,2013-01-04 10:45:00,
2013-01-04 05:50:00,26.1,7.1,29.96,WSW,252,6.0,15.0,44,0.00,,,-99.99,Weather View 32 v60,2013-01-04 10:50:00,
2013-01-04 05:55:00,26.1,6.6,29.96,WSW,249,11.0,15.0,43,0.00,,,-99.99,Weather View 32 v60,2013-01-04 10:55:00,
2013-01-04 06:00:00,25.9,6.4,29.96,WSW,239,5.0,15.0,43,0.00,,,-99.99,Weather View 32 v60,2013-01-04 11:00:00,
2013-01-04 06:05:00,25.9,6.4,29.96,WSW,241,8.0,15.0,43,0.00,,,-99.99,Weather View 32 v60,2013-01-04 11:05:00,
2013-01-04 06:10:00,25.7,6.3,29.96,WSW,237,8.0,15.0,43,0.00,,,-99.99,Weather View 32 v60,2013-01-04 11:10:00,
2013-01-04 06:15:00,25.7,6.3,29.96,SW,232,8.0,15.0,43,0.00,,,-99.99,Weather View 32 v60,2013-01-04 11:15:00,
2013-01-04 06:20:00,25.7,6.3,29.96,WSW,244,11.0,15.0,43,0.00,,,-99.99,Weather View 32 v60,2013-01-04 11:20:00,
2013-01-04 06:30:00,25.5,6.6,29.96,WSW,237,9.0,15.0,44,0.00,,,-99.99,Weather View 32 v60,2013-01-04 11:30:00,
2013-01-04 06:35:00,25.3,6.5,29.93,WSW,243,8.0,14.0,44,0.00,,,-99.99,Weather View 32 v60,2013-01-04 11:35:00,
2013-01-04 06:45:00,25.3,6.0,29.93,WSW,241,11.0,16.0,43,0.00,,,-99.99,Weather View 32 v60,2013-01-04 11:45:00,
2013-01-04 06:50:00,25.3,6.0,29.96,WSW,237,11.0,16.0,43,0.00,,,-99.99,Weather View 32 v60,2013-01-04 11:50:00,
2013-01-04 06:55:00,25.3,6.0,29.96,WSW,243,7.0,16.0,43,0.00,,,-99.99,Weather View 32 v60,2013-01-04 11:55:00,
2013-01-04 07:00:00,25.2,5.8,29.96,West,265,13.0,16.0,43,0.00,,,-99.99,Weather View 32 v60,2013-01-04 12:00:00,
2013-01-04 07:10:00,25.2,5.8,29.96,WSW,257,13.0,19.0,43,0.00,,,-99.99,Weather View 32 v60,2013-01-04 12:10:00,
2013-01-04 07:15:00,25.2,5.8,29.96,West,265,11.0,19.0,43,0.00,,,-99.99,Weather View 32 v60,2013-01-04 12:15:00,
2013-01-04 07:20:00,25.2,5.8,29.96,West,277,13.0,19.0,43,0.00,,,-99.99,Weather View 32 v60,2013-01-04 12:20:00,
2013-01-04 07:30:00,25.0,5.6,29.96,WNW,284,13.0,19.0,43,0.00,,,-99.99,Weather View 32 v60,2013-01-04 12:30:00,
2013-01-04 07:35:00,25.0,5.6,29.96,SW,216,11.0,19.0,43,0.00,,,-99.99,Weather View 32 v60,2013-01-04 12:35:00,
2013-01-04 07:40:00,25.0,5.6,29.96,West,278,11.0,19.0,43,0.00,,,-99.99,Weather View 32 v60,2013-01-04 12:40:00,
2013-01-04 07:45:00,24.8,5.5,29.96,West,266,7.0,19.0,43,0.00,,,-99.99,Weather View 32 v60,2013-01-04 12:45:00,
2013-01-04 07:50:00,24.8,5.5,29.96,West,259,13.0,19.0,43,0.00,,,-99.99,Weather View 32 v60,2013-01-04 12:50:00,
2013-01-04 07:55:00,24.8,6.0,29.96,WSW,237,14.0,19.0,44,0.00,,,-99.99,Weather View 32 v60,2013-01-04 12:55:00,
2013-01-04 08:00:00,24.8,6.0,29.96,West,262,8.0,19.0,44,0.00,,,-99.99,Weather View 32 v60,2013-01-04 13:00:00,
2013-01-04 08:05:00,24.8,6.0,29.96,WSW,257,10.0,17.0,44,0.00,,,-99.99,Weather View 32 v60,2013-01-04 13:05:00,
2013-01-04 08:15:00,24.8,6.0,29.96,WSW,246,13.0,17.0,44,0.00,,,-99.99,Weather View 32 v60,2013-01-04 13:15:00,
2013-01-04 08:20:00,24.8,6.0,29.96,WSW,249,13.0,17.0,44,0.00,,,-99.99,Weather View 32 v60,2013-01-04 13:20:00,
2013-01-04 08:25:00,24.8,6.0,29.96,SW,215,11.0,17.0,44,0.00,,,-99.99,Weather View 32 v60,2013-01-04 13:25:00,
2013-01-04 08:30:00,25.0,6.1,29.96,West,266,14.0,17.0,44,0.00,,,-99.99,Weather View 32 v60,2013-01-04 13:30:00,
2013-01-04 08:35:00,25.0,6.1,29.96,West,262,13.0,17.0,44,0.00,,,-99.99,Weather View 32 v60,2013-01-04 13:35:00,
2013-01-04 08:40:00,25.0,6.1,29.93,SW,230,8.0,21.0,44,0.00,,,-99.99,Weather View 32 v60,2013-01-04 13:40:00,
2013-01-04 08:45:00,25.0,6.1,29.93,West,260,8.0,21.0,44,0.00,,,-99.99,Weather View 32 v60,2013-01-04 13:45:00,
2013-01-04 08:50:00,25.0,6.1,29.93,WSW,247,15.0,21.0,44,0.00,,,-99.99,Weather View 32 v60,2013-01-04 13:50:00,
2013-01-04 08:55:00,25.2,6.3,29.93,SW,216,8.0,21.0,44,0.00,,,-99.99,Weather View 32 v60,2013-01-04 13:55:00,
2013-01-04 09:00:00,25.2,6.3,29.93,WSW,245,10.0,21.0,44,0.00,,,-99.99,Weather View 32 v60,2013-01-04 14:00:00,
2013-01-04 09:05:00,25.3,6.5,29.93,West,271,9.0,21.0,44,0.00,,,-99.99,Weather View 32 v60,2013-01-04 14:05:00,
2013-01-04 09:10:00,25.3,6.5,29.93,WSW,255,11.0,21.0,44,0.00,,,-99.99,Weather View 32 v60,2013-01-04 14:10:00,
2013-01-04 09:15:00,25.5,6.6,29.93,WSW,244,13.0,21.0,44,0.00,,,-99.99,Weather View 32 v60,2013-01-04 14:15:00,
2013-01-04 09:20:00,25.5,6.6,29.96,WSW,249,11.0,21.0,44,0.00,,,-99.99,Weather View 32 v60,2013-01-04 14:20:00,
2013-01-04 09:25:00,25.7,6.8,29.96,West,267,11.0,21.0,44,0.00,,,-99.99,Weather View 32 v60,2013-01-04 14:25:00,
2013-01-04 09:30:00,25.7,6.8,29.96,SW,222,9.0,21.0,44,0.00,,,-99.99,Weather View 32 v60,2013-01-04 14:30:00,
2013-01-04 09:40:00,26.1,7.1,29.96,WSW,249,6.0,21.0,44,0.00,,,-99.99,Weather View 32 v60,2013-01-04 14:40:00,
2013-01-04 09:45:00,26.1,7.1,29.96,SW,216,6.0,21.0,44,0.00,,,-99.99,Weather View 32 v60,2013-01-04 14:45:00,
2013-01-04 09:55:00,26.2,7.3,29.96,SW,219,13.0,17.0,44,0.00,,,-99.99,Weather View 32 v60,2013-01-04 14:55:00,
2013-01-04 10:00:00,26.2,7.3,29.96,WSW,239,8.0,17.0,44,0.00,,,-99.99,Weather View 32 v60,2013-01-04 15:00:00,
2013-01-04 10:05:00,26.4,7.4,29.96,WSW,253,8.0,17.0,44,0.00,,,-99.99,Weather View 32 v60,2013-01-04 15:05:00,
2013-01-04 10:10:00,26.6,7.6,29.96,WSW,247,8.0,17.0,44,0.00,,,-99.99,Weather View 32 v60,2013-01-04 15:10:00,
2013-01-04 10:15:00,26.6,7.6,29.96,SW,229,6.0,17.0,44,0.00,,,-99.99,Weather View 32 v60,2013-01-04 15:15:00,
2013-01-04 10:20:00,26.8,7.8,29.96,WSW,254,15.0,17.0,44,0.00,,,-99.99,Weather View 32 v60,2013-01-04 15:20:00,
2013-01-04 10:25:00,27.0,7.9,29.93,WNW,287,9.0,20.0,44,0.00,,,-99.99,Weather View 32 v60,2013-01-04 15:25:00,
2013-01-04 10:30:00,27.1,8.1,29.93,WSW,249,4.0,20.0,44,0.00,,,-99.99,Weather View 32 v60,2013-01-04 15:30:00,
2013-01-04 10:35:00,27.3,8.3,29.93,South,190,5.0,20.0,44,0.00,,,-99.99,Weather View 32 v60,2013-01-04 15:35:00,
2013-01-04 10:40:00,27.5,7.9,29.93,WSW,238,7.0,20.0,43,0.00,,,-99.99,Weather View 32 v60,2013-01-04 15:40:00,
2013-01-04 10:45:00,27.7,8.1,29.93,West,277,5.0,20.0,43,0.00,,,-99.99,Weather View 32 v60,2013-01-04 15:45:00,
2013-01-04 10:50:00,27.9,8.2,29.93,West,265,11.0,20.0,43,0.00,,,-99.99,Weather View 32 v60,2013-01-04 15:50:00,
2013-01-04 10:55:00,28.0,8.4,29.93,West,265,8.0,20.0,43,0.00,,,-99.99,Weather View 32 v60,2013-01-04 15:55:00,
2013-01-04 11:00:00,28.2,8.6,29.93,West,262,8.0,20.0,43,0.00,,,-99.99,Weather View 32 v60,2013-01-04 16:00:00,
2013-01-04 11:05:00,28.4,8.7,29.93,WNW,294,11.0,20.0,43,0.00,,,-99.99,Weather View 32 v60,2013-01-04 16:05:00,
2013-01-04 11:10:00,28.6,8.9,29.93,West,261,17.0,20.0,43,0.00,,,-99.99,Weather View 32 v60,2013-01-04 16:10:00,
2013-01-04 11:15:00,28.8,8.5,29.93,WSW,238,11.0,23.0,42,0.00,,,-99.99,Weather View 32 v60,2013-01-04 16:15:00,
2013-01-04 11:20:00,28.8,8.5,29.93,West,261,8.0,23.0,42,0.00,,,-99.99,Weather View 32 v60,2013-01-04 16:20:00,
2013-01-04 11:25:00,28.9,8.7,29.93,West,263,11.0,23.0,42,0.00,,,-99.99,Weather View 32 v60,2013-01-04 16:25:00,
2013-01-04 11:30:00,29.1,8.9,29.93,SW,217,15.0,23.0,42,0.00,,,-99.99,Weather View 32 v60,2013-01-04 16:30:00,
2013-01-04 11:35:00,29.1,8.9,29.96,West,274,20.0,23.0,42,0.00,,,-99.99,Weather View 32 v60,2013-01-04 16:35:00,
2013-01-04 11:40:00,29.3,9.0,29.96,SSW,208,13.0,23.0,42,0.00,,,-99.99,Weather View 32 v60,2013-01-04 16:40:00,
2013-01-04 11:45:00,29.3,9.0,29.96,WSW,248,13.0,23.0,42,0.00,,,-99.99,Weather View 32 v60,2013-01-04 16:45:00,
2013-01-04 11:50:00,29.3,9.0,29.96,WSW,247,14.0,23.0,42,0.00,,,-99.99,Weather View 32 v60,2013-01-04 16:50:00,
2013-01-04 11:55:00,29.3,9.0,29.96,West,262,13.0,23.0,42,0.00,,,-99.99,Weather View 32 v60,2013-01-04 16:55:00,
2013-01-04 12:00:00,29.5,9.2,29.96,WNW,285,14.0,23.0,42,0.00,,,-99.99,Weather View 32 v60,2013-01-04 17:00:00,
2013-01-04 12:05:00,29.5,8.7,29.93,SW,219,11.0,23.0,41,0.00,,,-99.99,Weather View 32 v60,2013-01-04 17:05:00,
2013-01-04 12:10:00,29.5,8.7,29.93,West,273,20.0,23.0,41,0.00,,,-99.99,Weather View 32 v60,2013-01-04 17:10:00,
2013-01-04 12:15:00,29.5,9.2,29.93,West,275,17.0,21.0,42,0.00,,,-99.99,Weather View 32 v60,2013-01-04 17:15:00,
2013-01-04 12:20:00,29.5,9.2,29.93,WSW,252,8.0,21.0,42,0.00,,,-99.99,Weather View 32 v60,2013-01-04 17:20:00,
2013-01-04 12:25:00,29.5,9.2,29.93,West,262,10.0,21.0,42,0.00,,,-99.99,Weather View 32 v60,2013-01-04 17:25:00,
2013-01-04 12:30:00,29.5,9.2,29.93,West,264,17.0,23.0,42,0.00,,,-99.99,Weather View 32 v60,2013-01-04 17:30:00,
2013-01-04 12:35:00,29.5,9.2,29.93,WSW,256,17.0,23.0,42,0.00,,,-99.99,Weather View 32 v60,2013-01-04 17:35:00,
2013-01-04 12:40:00,29.5,8.7,29.93,West,259,13.0,27.0,41,0.00,,,-99.99,Weather View 32 v60,2013-01-04 17:40:00,
2013-01-04 12:45:00,29.5,9.2,29.93,West,281,14.0,27.0,42,0.00,,,-99.99,Weather View 32 v60,2013-01-04 17:45:00,
2013-01-04 12:50:00,29.5,9.2,29.93,WSW,243,17.0,27.0,42,0.00,,,-99.99,Weather View 32 v60,2013-01-04 17:50:00,
2013-01-04 12:55:00,29.5,9.2,29.93,WSW,255,13.0,27.0,42,0.00,,,-99.99,Weather View 32 v60,2013-01-04 17:55:00,
2013-01-04 13:00:00,29.7,9.4,29.93,WSW,246,12.0,27.0,42,0.00,,,-99.99,Weather View 32 v60,2013-01-04 18:00:00,
2013-01-04 13:05:00,29.7,9.4,29.93,West,273,15.0,27.0,42,0.00,,,-99.99,Weather View 32 v60,2013-01-04 18:05:00,
2013-01-04 13:10:00,29.7,9.4,29.93,SW,234,12.0,27.0,42,0.00,,,-99.99,Weather View 32 v60,2013-01-04 18:10:00,
2013-01-04 13:15:00,29.7,9.4,29.93,WSW,242,13.0,27.0,42,0.00,,,-99.99,Weather View 32 v60,2013-01-04 18:15:00,
2013-01-04 13:20:00,29.7,9.4,29.93,WSW,253,11.0,27.0,42,0.00,,,-99.99,Weather View 32 v60,2013-01-04 18:20:00,
2013-01-04 13:25:00,29.7,9.4,29.93,West,262,9.0,27.0,42,0.00,,,-99.99,Weather View 32 v60,2013-01-04 18:25:00,
2013-01-04 13:30:00,29.8,9.5,29.93,West,263,15.0,27.0,42,0.00,,,-99.99,Weather View 32 v60,2013-01-04 18:30:00,
2013-01-04 13:35:00,29.8,9.5,29.93,West,262,13.0,27.0,42,0.00,,,-99.99,Weather View 32 v60,2013-01-04 18:35:00,
2013-01-04 13:40:00,29.8,9.5,29.93,WSW,258,17.0,25.0,42,0.00,,,-99.99,Weather View 32 v60,2013-01-04 18:40:00,
2013-01-04 13:50:00,30.0,9.2,29.93,West,271,22.0,25.0,41,0.00,,,-99.99,Weather View 32 v60,2013-01-04 18:50:00,
2013-01-04 13:55:00,30.0,9.2,29.93,WSW,256,11.0,25.0,41,0.00,,,-99.99,Weather View 32 v60,2013-01-04 18:55:00,
2013-01-04 14:00:00,30.2,9.3,29.93,WSW,254,15.0,25.0,41,0.00,,,-99.99,Weather View 32 v60,2013-01-04 19:00:00,
2013-01-04 14:05:00,30.2,9.3,29.93,WNW,290,9.0,25.0,41,0.00,,,-99.99,Weather View 32 v60,2013-01-04 19:05:00,
2013-01-04 14:10:00,30.2,9.3,29.93,WSW,244,15.0,25.0,41,0.00,,,-99.99,Weather View 32 v60,2013-01-04 19:10:00,
2013-01-04 14:15:00,30.2,9.3,29.93,WNW,292,13.0,25.0,41,0.00,,,-99.99,Weather View 32 v60,2013-01-04 19:15:00,
2013-01-04 14:20:00,30.2,9.3,29.93,West,274,11.0,25.0,41,0.00,,,-99.99,Weather View 32 v60,2013-01-04 19:20:00,
2013-01-04 14:25:00,30.2,9.3,29.90,WNW,285,12.0,25.0,41,0.00,,,-99.99,Weather View 32 v60,2013-01-04 19:25:00,
2013-01-04 14:30:00,30.2,9.3,29.90,West,267,9.0,25.0,41,0.00,,,-99.99,Weather View 32 v60,2013-01-04 19:30:00,
2013-01-04 14:35:00,30.2,9.3,29.93,West,278,13.0,25.0,41,0.00,,,-99.99,Weather View 32 v60,2013-01-04 19:35:00,
2013-01-04 14:40:00,30.2,9.3,29.93,WSW,246,15.0,25.0,41,0.00,,,-99.99,Weather View 32 v60,2013-01-04 19:40:00,
2013-01-04 14:45:00,30.2,9.3,29.93,West,273,11.0,25.0,41,0.00,,,-99.99,Weather View 32 v60,2013-01-04 19:45:00,
2013-01-04 14:50:00,30.2,9.3,29.93,West,261,11.0,22.0,41,0.00,,,-99.99,Weather View 32 v60,2013-01-04 19:50:00,
2013-01-04 14:55:00,30.2,9.3,29.93,West,268,17.0,21.0,41,0.00,,,-99.99,Weather View 32 v60,2013-01-04 19:55:00,
2013-01-04 15:00:00,30.2,9.3,29.93,WSW,250,17.0,21.0,41,0.00,,,-99.99,Weather View 32 v60,2013-01-04 20:00:00,
2013-01-04 15:05:00,30.4,9.5,29.93,West,271,16.0,22.0,41,0.00,,,-99.99,Weather View 32 v60,2013-01-04 20:05:00,
2013-01-04 15:10:00,30.4,9.5,29.93,West,275,17.0,22.0,41,0.00,,,-99.99,Weather View 32 v60,2013-01-04 20:10:00,
2013-01-04 15:15:00,30.2,9.3,29.93,West,276,11.0,22.0,41,0.00,,,-99.99,Weather View 32 v60,2013-01-04 20:15:00,
2013-01-04 15:20:00,30.4,9.5,29.93,WSW,256,12.0,22.0,41,0.00,,,-99.99,Weather View 32 v60,2013-01-04 20:20:00,
2013-01-04 15:25:00,30.4,9.5,29.93,WSW,251,13.0,22.0,41,0.00,,,-99.99,Weather View 32 v60,2013-01-04 20:25:00,
2013-01-04 15:30:00,30.4,9.5,29.93,WSW,241,11.0,22.0,41,0.00,,,-99.99,Weather View 32 v60,2013-01-04 20:30:00,
2013-01-04 15:35:00,30.4,9.5,29.93,SW,227,6.0,22.0,41,0.00,,,-99.99,Weather View 32 v60,2013-01-04 20:35:00,
2013-01-04 15:40:00,30.4,9.5,29.93,WSW,256,15.0,22.0,41,0.00,,,-99.99,Weather View 32 v60,2013-01-04 20:40:00,
2013-01-04 15:45:00,30.4,8.9,29.93,WSW,253,11.0,22.0,40,0.00,,,-99.99,Weather View 32 v60,2013-01-04 20:45:00,
2013-01-04 15:50:00,30.4,8.9,29.93,West,281,11.0,22.0,40,0.00,,,-99.99,Weather View 32 v60,2013-01-04 20:50:00,
2013-01-04 15:55:00,30.2,9.3,29.93,WSW,240,14.0,22.0,41,0.00,,,-99.99,Weather View 32 v60,2013-01-04 20:55:00,
2013-01-04 16:00:00,30.2,9.3,29.93,WNW,298,15.0,22.0,41,0.00,,,-99.99,Weather View 32 v60,2013-01-04 21:00:00,
2013-01-04 16:05:00,30.2,9.3,29.93,West,272,15.0,22.0,41,0.00,,,-99.99,Weather View 32 v60,2013-01-04 21:05:00,
2013-01-04 16:15:00,30.0,9.2,29.93,WSW,251,9.0,21.0,41,0.00,,,-99.99,Weather View 32 v60,2013-01-04 21:15:00,
2013-01-04 16:20:00,29.8,9.0,29.96,WNW,282,8.0,21.0,41,0.00,,,-99.99,Weather View 32 v60,2013-01-04 21:20:00,
2013-01-04 16:25:00,29.8,9.0,29.96,NW,307,10.0,21.0,41,0.00,,,-99.99,Weather View 32 v60,2013-01-04 21:25:00,
2013-01-04 16:30:00,29.8,9.0,29.96,WSW,249,6.0,21.0,41,0.00,,,-99.99,Weather View 32 v60,2013-01-04 21:30:00,
2013-01-04 16:35:00,29.8,9.0,29.96,WNW,300,11.0,21.0,41,0.00,,,-99.99,Weather View 32 v60,2013-01-04 21:35:00,
2013-01-04 16:40:00,29.7,8.8,29.96,West,277,13.0,21.0,41,0.00,,,-99.99,Weather View 32 v60,2013-01-04 21:40:00,
2013-01-04 16:45:00,29.7,8.8,29.96,WSW,245,8.0,21.0,41,0.00,,,-99.99,Weather View 32 v60,2013-01-04 21:45:00,
2013-01-04 16:50:00,29.7,8.8,29.96,West,259,9.0,19.0,41,0.00,,,-99.99,Weather View 32 v60,2013-01-04 21:50:00,
2013-01-04 16:55:00,29.5,8.7,29.96,WNW,292,4.0,19.0,41,0.00,,,-99.99,Weather View 32 v60,2013-01-04 21:55:00,
2013-01-04 17:00:00,29.5,8.7,29.96,SW,221,9.0,19.0,41,0.00,,,-99.99,Weather View 32 v60,2013-01-04 22:00:00,
2013-01-04 17:05:00,29.3,8.5,29.96,West,265,9.0,19.0,41,0.00,,,-99.99,Weather View 32 v60,2013-01-04 22:05:00,
2013-01-04 17:10:00,29.3,8.5,29.96,WNW,292,13.0,19.0,41,0.00,,,-99.99,Weather View 32 v60,2013-01-04 22:10:00,
2013-01-04 17:15:00,29.1,8.3,29.96,WNW,282,11.0,19.0,41,0.00,,,-99.99,Weather View 32 v60,2013-01-04 22:15:00,
2013-01-04 17:20:00,28.9,8.2,29.96,West,261,13.0,19.0,41,0.00,,,-99.99,Weather View 32 v60,2013-01-04 22:20:00,
2013-01-04 17:25:00,28.9,8.2,29.96,West,265,8.0,19.0,41,0.00,,,-99.99,Weather View 32 v60,2013-01-04 22:25:00,
2013-01-04 17:30:00,28.8,8.0,29.96,WSW,243,10.0,19.0,41,0.00,,,-99.99,Weather View 32 v60,2013-01-04 22:30:00,
2013-01-04 17:35:00,28.8,8.0,29.96,West,265,8.0,19.0,41,0.00,,,-99.99,Weather View 32 v60,2013-01-04 22:35:00,
2013-01-04 17:40:00,28.6,7.8,29.96,WNW,293,8.0,19.0,41,0.00,,,-99.99,Weather View 32 v60,2013-01-04 22:40:00,
2013-01-04 17:50:00,28.6,7.8,29.99,West,261,8.0,16.0,41,0.00,,,-99.99,Weather View 32 v60,2013-01-04 22:50:00,
2013-01-04 18:00:00,28.4,7.7,29.99,SW,233,11.0,16.0,41,0.00,,,-99.99,Weather View 32 v60,2013-01-04 23:00:00,
2013-01-04 18:05:00,28.4,8.2,29.99,West,276,11.0,16.0,42,0.00,,,-99.99,Weather View 32 v60,2013-01-04 23:05:00,
2013-01-04 18:10:00,28.2,8.1,29.99,WNW,283,8.0,16.0,42,0.00,,,-99.99,Weather View 32 v60,2013-01-04 23:10:00,
2013-01-04 18:15:00,28.2,8.1,29.99,West,272,8.0,16.0,42,0.00,,,-99.99,Weather View 32 v60,2013-01-04 23:15:00,
2013-01-04 18:20:00,28.2,8.1,29.99,WSW,258,9.0,15.0,42,0.00,,,-99.99,Weather View 32 v60,2013-01-04 23:20:00,
2013-01-04 18:25:00,28.0,7.9,29.99,WSW,248,13.0,15.0,42,0.00,,,-99.99,Weather View 32 v60,2013-01-04 23:25:00,
2013-01-04 18:30:00,28.0,7.9,29.99,West,264,10.0,17.0,42,0.00,,,-99.99,Weather View 32 v60,2013-01-04 23:30:00,
2013-01-04 18:35:00,28.0,7.9,29.99,WSW,257,8.0,17.0,42,0.00,,,-99.99,Weather View 32 v60,2013-01-04 23:35:00,
2013-01-04 18:40:00,28.0,7.9,29.99,West,259,8.0,17.0,42,0.00,,,-99.99,Weather View 32 v60,2013-01-04 23:40:00,
2013-01-04 18:45:00,27.9,7.7,29.99,WNW,293,8.0,17.0,42,0.00,,,-99.99,Weather View 32 v60,2013-01-04 23:45:00,
2013-01-04 18:50:00,27.9,7.7,29.99,West,266,6.0,17.0,42,0.00,,,-99.99,Weather View 32 v60,2013-01-04 23:50:00,
2013-01-04 19:00:00,27.9,7.7,29.99,WSW,249,7.0,17.0,42,0.00,,,-99.99,Weather View 32 v60,2013-01-05 00:00:00,
2013-01-04 19:05:00,27.9,7.7,29.99,SW,236,13.0,17.0,42,0.00,,,-99.99,Weather View 32 v60,2013-01-05 00:05:00,
2013-01-04 19:10:00,27.7,7.6,30.02,WSW,256,11.0,17.0,42,0.00,,,-99.99,Weather View 32 v60,2013-01-05 00:10:00,
2013-01-04 19:20:00,27.7,7.6,30.02,WSW,253,8.0,17.0,42,0.00,,,-99.99,Weather View 32 v60,2013-01-05 00:20:00,
2013-01-04 19:25:00,27.7,7.6,30.02,West,267,11.0,17.0,42,0.00,,,-99.99,Weather View 32 v60,2013-01-05 00:25:00,
2013-01-04 19:30:00,27.5,7.4,30.02,WNW,286,9.0,15.0,42,0.00,,,-99.99,Weather View 32 v60,2013-01-05 00:30:00,
2013-01-04 19:35:00,27.5,7.4,30.02,West,271,9.0,13.0,42,0.00,,,-99.99,Weather View 32 v60,2013-01-05 00:35:00,
2013-01-04 19:40:00,27.5,7.9,30.02,West,274,8.0,13.0,43,0.00,,,-99.99,Weather View 32 v60,2013-01-05 00:40:00,
2013-01-04 19:45:00,27.5,7.9,30.02,West,273,11.0,13.0,43,0.00,,,-99.99,Weather View 32 v60,2013-01-05 00:45:00,
2013-01-04 19:50:00,27.3,7.8,30.02,West,263,8.0,13.0,43,0.00,,,-99.99,Weather View 32 v60,2013-01-05 00:50:00,
2013-01-04 20:00:00,27.3,7.8,30.05,WSW,245,6.0,13.0,43,0.00,,,-99.99,Weather View 32 v60,2013-01-05 01:00:00,
2013-01-04 20:07:00,27.1,7.6,30.05,West,278,8.0,13.0,43,0.00,,,-99.99,Weather View 32 v60,2013-01-05 01:07:00,
2013-01-04 20:15:00,27.1,7.6,30.05,WSW,255,6.0,13.0,43,0.00,,,-99.99,Weather View 32 v60,2013-01-05 01:15:00,
2013-01-04 20:20:00,27.1,7.6,30.05,West,263,7.0,13.0,43,0.00,,,-99.99,Weather View 32 v60,2013-01-05 01:20:00,
2013-01-04 20:30:00,27.0,7.4,30.05,West,268,8.0,13.0,43,0.00,,,-99.99,Weather View 32 v60,2013-01-05 01:30:00,
2013-01-04 20:35:00,27.0,7.4,30.05,West,276,8.0,13.0,43,0.00,,,-99.99,Weather View 32 v60,2013-01-05 01:35:00,
2013-01-04 20:45:00,27.0,7.9,30.05,West,278,6.0,13.0,44,0.00,,,-99.99,Weather View 32 v60,2013-01-05 01:45:00,
2013-01-04 20:55:00,27.0,7.9,30.05,WSW,254,6.0,13.0,44,0.00,,,-99.99,Weather View 32 v60,2013-01-05 01:55:00,
2013-01-04 21:00:00,27.0,7.9,30.05,West,265,10.0,13.0,44,0.00,,,-99.99,Weather View 32 v60,2013-01-05 02:00:00,
2013-01-04 21:05:00,27.0,7.9,30.05,West,259,8.0,13.0,44,0.00,,,-99.99,Weather View 32 v60,2013-01-05 02:05:00,
2013-01-04 21:10:00,27.0,7.9,30.05,WSW,242,8.0,13.0,44,0.00,,,-99.99,Weather View 32 v60,2013-01-05 02:10:00,
2013-01-04 21:15:00,27.0,7.9,30.05,West,268,7.0,13.0,44,0.00,,,-99.99,Weather View 32 v60,2013-01-05 02:15:00,
2013-01-04 21:20:00,27.0,8.4,30.05,WSW,254,6.0,12.0,45,0.00,,,-99.99,Weather View 32 v60,2013-01-05 02:20:00,
2013-01-04 21:25:00,27.0,8.4,30.05,West,272,8.0,11.0,45,0.00,,,-99.99,Weather View 32 v60,2013-01-05 02:25:00,
2013-01-04 21:30:00,27.0,8.4,30.05,WSW,254,5.0,11.0,45,0.00,,,-99.99,Weather View 32 v60,2013-01-05 02:30:00,
2013-01-04 21:35:00,27.0,8.4,30.05,West,273,11.0,11.0,45,0.00,,,-99.99,Weather View 32 v60,2013-01-05 02:35:00,
2013-01-04 21:40:00,27.0,8.4,30.05,West,267,6.0,11.0,45,0.00,,,-99.99,Weather View 32 v60,2013-01-05 02:40:00,
2013-01-04 21:45:00,27.0,8.4,30.05,WSW,254,8.0,11.0,45,0.00,,,-99.99,Weather View 32 v60,2013-01-05 02:45:00,
2013-01-04 21:50:00,27.0,8.4,30.05,WNW,290,8.0,11.0,45,0.00,,,-99.99,Weather View 32 v60,2013-01-05 02:50:00,
2013-01-04 21:55:00,27.0,8.4,30.05,SW,232,9.0,11.0,45,0.00,,,-99.99,Weather View 32 v60,2013-01-05 02:55:00,
2013-01-04 22:00:00,27.0,8.4,30.05,West,262,6.0,11.0,45,0.00,,,-99.99,Weather View 32 v60,2013-01-05 03:00:00,
2013-01-04 22:05:00,26.8,8.3,30.05,WSW,256,6.0,11.0,45,0.00,,,-99.99,Weather View 32 v60,2013-01-05 03:05:00,
2013-01-04 22:10:00,26.8,8.3,30.05,WSW,254,5.0,11.0,45,0.00,,,-99.99,Weather View 32 v60,2013-01-05 03:10:00,
2013-01-04 22:15:00,26.8,8.3,30.05,WSW,238,6.0,11.0,45,0.00,,,-99.99,Weather View 32 v60,2013-01-05 03:15:00,
2013-01-04 22:20:00,26.8,8.3,30.05,West,270,6.0,11.0,45,0.00,,,-99.99,Weather View 32 v60,2013-01-05 03:20:00,
2013-01-04 22:25:00,26.8,8.3,30.05,WSW,255,6.0,11.0,45,0.00,,,-99.99,Weather View 32 v60,2013-01-05 03:25:00,
2013-01-04 22:30:00,26.8,8.3,30.05,WSW,247,4.0,11.0,45,0.00,,,-99.99,Weather View 32 v60,2013-01-05 03:30:00,
2013-01-04 22:35:00,26.8,8.3,30.08,WSW,243,5.0,11.0,45,0.00,,,-99.99,Weather View 32 v60,2013-01-05 03:35:00,
2013-01-04 22:40:00,26.8,8.3,30.08,WSW,244,4.0,11.0,45,0.00,,,-99.99,Weather View 32 v60,2013-01-05 03:40:00,
2013-01-04 22:45:00,26.8,8.3,30.08,SW,236,5.0,11.0,45,0.00,,,-99.99,Weather View 32 v60,2013-01-05 03:45:00,
2013-01-04 22:50:00,26.6,8.6,30.08,West,279,3.0,11.0,46,0.00,,,-99.99,Weather View 32 v60,2013-01-05 03:50:00,
2013-01-04 22:55:00,26.6,8.6,30.08,WSW,258,5.0,11.0,46,0.00,,,-99.99,Weather View 32 v60,2013-01-05 03:55:00,
2013-01-04 23:00:00,26.6,8.6,30.08,West,270,6.0,11.0,46,0.00,,,-99.99,Weather View 32 v60,2013-01-05 04:00:00,
2013-01-04 23:05:00,26.6,8.6,30.08,WSW,245,4.0,11.0,46,0.00,,,-99.99,Weather View 32 v60,2013-01-05 04:05:00,
2013-01-04 23:10:00,26.6,9.1,30.08,West,271,8.0,9.0,47,0.00,,,-99.99,Weather View 32 v60,2013-01-05 04:10:00,
2013-01-04 23:15:00,26.6,9.1,30.08,West,261,4.0,9.0,47,0.00,,,-99.99,Weather View 32 v60,2013-01-05 04:15:00,
2013-01-04 23:20:00,26.6,9.1,30.11,WSW,246,5.0,9.0,47,0.00,,,-99.99,Weather View 32 v60,2013-01-05 04:20:00,
2013-01-04 23:25:00,26.6,9.1,30.11,WSW,243,5.0,9.0,47,0.00,,,-99.99,Weather View 32 v60,2013-01-05 04:25:00,
2013-01-04 23:30:00,26.6,9.1,30.11,SW,223,6.0,9.0,47,0.00,,,-99.99,Weather View 32 v60,2013-01-05 04:30:00,
2013-01-04 23:35:00,26.6,9.1,30.11,SSW,212,3.0,9.0,47,0.00,,,-99.99,Weather View 32 v60,2013-01-05 04:35:00,
2013-01-04 23:40:00,26.6,9.1,30.11,SW,222,4.0,9.0,47,0.00,,,-99.99,Weather View 32 v60,2013-01-05 04:40:00,
2013-01-04 23:45:00,26.6,8.6,30.11,SW,234,3.0,9.0,46,0.00,,,-99.99,Weather View 32 v60,2013-01-05 04:45:00,
2013-01-04 23:50:00,26.4,8.4,30.11,SW,232,3.0,9.0,46,0.00,,,-99.99,Weather View 32 v60,2013-01-05 04:50:00,
2013-01-04 23:55:00,26.4,8.4,30.11,WSW,241,6.0,9.0,46,0.00,,,-99.99,Weather View 32 v60,2013-01-05 04:55:00,